Probability
0 0 0 0 0 0 0 0 0 0 0 0 0 0 0 0 0 0 0 0 0 0 0 0 0 0 0 0 0 0 0 1 3 4 5 5 5 4 3 2 2 1 2 2
0 0 0 0 0 0 0 0 0 0 0 0 0 0 0 0 0 0 0 0 0 0 0 0 0 0 0 0 0 0 0 1 2 2 2 2 2 1 1 1 1 0 1 1
0 0 0 0 0 0 0 0 0 0 0 0 0 0 0 0 0 0 0 0 0 0 0 0 0 0 0 0 0 0 0 0 0 0 0 0 0 0 0 0 0 0 0 0
0 0 0 0 0 0 0 0 0 0 0 0 0 0 0 0 0 0 0 0 0 0 0 0 0 0 0 0 0 0 0 0 0 0 0 0 0 0 0 0 0 0 0 0
0 0 0 0 0 0 0 0 0 0 0 0 0 0 0 0 0 0 0 0 0 0 0 0 0 0 0 0 0 0 0 0 0 0 0 0 0 0 0 0 0 0 0 0
0 0 0 0 0 0 0 0 0 0 0 0 0 0 0 0 0 0 0 0 0 0 0 0 0 0 0 0 0 0 0 0 0 0 0 0 0 0 0 0 0 0 0 0
0 0 0 0 0 0 0 0 0 0 0 0 0 0 0 0 0 0 0 0 0 0 0 0 0 0 0 0 0 0 0 0 0 0 0 0 0 0 0 0 0 0 0 0
0 0 0 0 0 0 0 0 0 0 0 0 0 0 0 0 0 0 0 0 0 0 0 0 0 0 0 0 0 0 0 0 0 0 0 0 0 0 0 0 0 0 0 0
0 0 0 0 0 0 0 0 0 0 0 0 0 0 0 0 0 0 0 0 0 0 0 0 0 0 0 0 0 0 0 0 0 0 0 0 0 0 0 0 0 0 0 0
0 0 0 0 0 0 0 0 0 0 0 0 0 0 0 0 0 0 0 0 0 0 0 0 0 0 0 0 0 0 0 0 0 0 0 0 0 0 0 0 0 0 0 0
0 0 0 0 0 0 0 0 0 0 0 0 0 0 0 0 0 0 0 0 0 0 0 0 0 0 0 0 0 0 0 0 0 0 0 0 0 0 0 0 0 0 0 0
0 0 0 0 0 0 0 0 0 0 0 0 0 0 0 0 0 0 0 0 0 0 0 0 0 0 0 0 0 0 0 0 0 0 0 0 0 0 0 0 0 0 0 0
0 0 0 0 0 0 0 0 0 0 0 0 0 0 0 0 0 0 0 0 0 0 0 0 0 0 0 0 0 0 0 0 0 0 0 0 0 0 0 0 0 0 0 0
0 0 0 0 0 0 0 0 0 0 0 0 0 0 0 0 0 0 0 0 0 0 0 0 0 0 0 0 0 0 0 0 0 0 0 0 0 0 0 0 0 0 0 0
0 0 0 0 0 0 0 0 0 0 0 0 0 0 0 0 0 0 0 0 0 0 0 0 0 0 0 0 0 0 0 0 0 0 0 0 0 0 0 0 0 0 0 0
0 0 0 0 0 0 0 0 0 0 0 0 0 0 0 0 0 0 0 0 0 0 0 0 0 0 0 0 0 0 0 0 0 0 0 0 0 0 0 0 0 0 0 0
0 0 0 0 0 0 0 0 0 0 0 0 0 0 0 0 0 0 0 0 0 0 0 0 0 0 0 0 0 0 0 0 0 0 0 0 0 0 0 0 0 0 0 0
0 0 0 0 0 0 0 0 0 0 0 0 0 0 0 0 0 0 0 0 0 0 0 0 0 0 0 0 0 0 0 0 0 0 0 0 0 0 0 0 0 0 0 0
0 0 0 0 0 0 0 0 0 0 0 0 0 0 0 0 0 0 0 0 0 0 0 0 0 0 0 0 0 0 0 0 0 0 0 0 0 0 0 0 0 0 0 0
0 0 0 0 0 0 0 0 0 0 0 0 0 0 0 0 0 0 0 0 0 0 0 0 0 0 0 0 0 0 0 0 0 0 0 0 0 0 0 0 0 0 0 0
0 0 0 0 0 0 0 0 0 0 0 0 0 0 0 0 0 0 0 0 0 0 0 0 0 0 0 0 0 0 0 0 0 0 0 0 0 0 0 0 0 0 0 0
0 0 0 0 0 0 0 0 0 0 0 0 0 0 0 0 0 0 0 0 0 0 0 0 0 0 0 0 0 0 0 0 0 0 0 0 0 0 0 0 0 0 0 0
0 0 0 0 0 0 0 0 0 0 0 0 0 0 0 0 0 0 0 0 0 0 0 0 0 0 0 0 0 0 0 0 0 0 0 0 0 0 0 0 0 0 0 0
0 0 0 0 0 0 0 0 0 0 0 0 0 0 0 0 0 0 0 0 0 0 0 0 0 0 0 0 0 0 0 0 0 0 0 0 0 0 0 0 0 0 0 0
0 0 0 0 0 0 0 0 0 0 0 0 0 0 0 0 0 0 0 0 0 0 0 0 0 0 0 0 0 0 0 0 0 0 0 0 0 0 0 0 0 0 0 0
0 0 0 0 0 0 0 0 0 0 0 0 0 0 0 0 0 0 0 0 0 0 0 0 0 0 0 0 0 0 0 0 0 0 0 0 0 0 0 0 0 0 0 0
Wind_Speed
5 5 7 9 11 9 4 5 5 1 5 4 7 10 10 9 8 9 9 9 10 10 10 10 12 12 11 11 11 13 13 13 10 8 9 8 8 7 6 6 9 11 12 13
4 8 9 6 4 4 4 5 6 5 3 2 6 12 11 11 12 12 11 11 10 10 9 10 11 12 13 13 12 12 13 13 12 10 9 6 6 5 6 5 7 10 12 13
9 3 7 6 3 2 5 6 7 7 2 5 4 10 11 12 16 14 11 10 10 10 10 8 9 11 12 13 13 12 12 12 12 10 6 4 4 4 5 7 8 10 11 13
9 6 2 4 6 6 6 5 6 5 4 5 4 7 5 6 7 9 9 9 10 10 10 8 7 8 10 12 10 11 10 10 10 11 9 10 10 11 12 8 8 8 11 12
7 7 7 7 7 8 2 4 2 1 3 6 5 7 8 7 8 8 9 10 10 9 6 5 5 6 7 9 9 9 9 9 9 10 11 11 11 9 6 6 8 9 9 11
2 1 2 2 2 6 8 4 3 1 2 7 7 9 10 8 10 8 10 9 6 4 2 1 2 3 2 4 6 7 8 8 8 9 10 11 11 9 7 7 8 8 7 8
6 4 2 3 5 5 6 5 2 3 4 9 6 9 10 5 3 4 4 2 2 1 1 1 2 2 2 4 5 5 6 7 7 8 9 9 10 9 10 8 8 8 7 8
11 10 14 10 8 9 9 9 10 8 7 6 3 11 8 2 2 1 1 4 4 3 2 2 2 2 3 4 5 5 6 6 6 7 8 8 8 7 7 8 7 9 8 9
8 7 10 13 7 12 9 9 6 3 3 5 8 8 4 2 2 5 7 6 4 3 3 4 3 3 4 4 5 6 6 6 6 7 7 8 8 8 8 7 7 7 7 7
3 2 4 5 2 3 4 6 5 6 6 8 10 10 9 6 11 10 6 4 3 2 2 3 3 3 3 4 4 5 5 6 6 7 7 6 8 8 8 7 8 7 7 8
5 4 3 3 9 10 6 5 6 6 7 7 7 10 3 2 3 3 1 0 1 1 1 2 3 3 3 3 4 5 5 6 6 7 7 7 7 7 8 8 8 7 7 8
6 3 5 7 6 5 9 12 11 7 7 5 5 12 3 6 6 5 3 2 1 1 1 1 2 3 3 4 4 5 6 7 7 7 7 8 8 7 8 9 8 7 8 8
6 6 3 2 3 3 5 9 11 9 5 6 8 12 2 6 4 3 1 1 1 2 2 2 2 3 4 5 6 6 7 8 7 7 7 8 8 9 10 9 8 8 8 8
5 5 8 9 4 4 4 6 7 9 9 11 16 17 9 2 3 4 4 5 4 4 4 4 4 5 5 6 6 6 7 7 7 7 8 9 10 10 9 8 8 8 8 8
4 5 5 6 4 2 4 6 8 11 12 11 13 18 18 6 7 7 7 7 7 6 5 5 5 4 4 5 5 6 6 6 7 8 9 10 9 8 7 7 7 7 8 8
5 3 3 6 8 7 9 11 12 14 13 15 17 24 14 8 8 8 7 6 7 7 6 6 6 6 6 6 6 5 6 5 6 8 9 8 7 7 7 7 7 7 7 7
5 5 4 4 3 2 11 14 15 13 13 12 18 21 10 9 8 7 5 6 7 7 8 8 8 7 6 5 5 5 5 4 4 6 7 6 6 7 7 6 7 7 7 7
6 5 2 2 3 10 10 5 11 14 14 13 13 12 7 6 7 6 3 5 7 8 9 8 8 8 7 6 5 5 5 4 4 6 6 5 6 6 6 6 7 7 6 7
8 7 5 4 6 8 9 6 6 8 8 4 6 6 6 7 6 3 6 7 7 7 7 7 7 7 7 7 6 6 6 5 4 5 5 5 5 5 6 7 6 5 5 5
9 8 6 6 6 9 7 2 2 4 6 3 3 4 6 6 4 5 8 9 9 8 7 7 7 7 8 8 6 6 6 5 5 5 5 4 4 5 6 6 5 4 4 5
7 8 12 11 8 9 6 2 1 5 5 0 1 2 3 2 5 7 8 7 6 7 7 7 7 6 7 8 7 6 6 5 5 3 2 2 2 3 4 3 3 4 4 5
8 8 10 9 10 11 2 2 3 2 1 1 1 2 3 5 7 7 7 6 6 6 6 6 6 7 6 6 6 6 6 5 3 2 1 0 1 1 2 3 3 4 5 5
7 8 6 8 7 3 3 4 2 2 1 1 2 3 4 6 8 8 8 7 6 6 6 5 5 6 6 5 4 5 6 5 3 1 1 2 2 2 3 4 4 3 4 4
4 2 3 4 4 1 1 1 1 2 3 4 4 5 5 8 9 9 8 8 6 6 5 4 4 5 5 5 4 4 5 4 1 1 2 2 3 3 3 3 3 3 3 3
4 3 3 5 4 4 3 2 2 3 4 5 5 6 7 8 10 9 8 7 6 5 4 3 3 4 5 5 5 5 5 3 1 2 2 3 3 3 4 4 3 3 2 2
6 5 5 6 4 4 5 5 4 5 6 7 7 8 7 7 9 8 7 6 5 4 3 3 3 3 4 5 5 6 6 3 1 2 2 2 3 3 3 4 5 8 7 8
Wind_Direction
186 208 204 206 215 246 311 325 299 33 117 184 241 259 261 261 246 237 236 237 238 237 229 211 200 193 191 192 194 193 193 190 188 191 193 195 200 194 192 191 187 184 182 180
162 231 229 232 232 243 261 279 293 306 121 189 266 269 263 250 248 240 240 242 243 246 239 221 201 187 189 193 196 198 198 193 193 199 196 193 188 192 193 188 191 189 185 182
201 195 213 212 180 212 239 236 252 267 245 214 265 281 244 238 232 236 237 241 248 249 249 239 209 193 188 193 196 200 201 199 196 192 181 175 174 178 190 198 199 195 189 185
227 227 158 192 204 192 242 239 235 271 311 278 220 285 269 265 243 222 227 237 246 250 247 239 218 200 193 196 191 195 198 200 195 188 190 190 197 203 204 197 196 191 190 189
214 187 172 196 204 193 185 53 75 224 253 274 244 265 265 238 245 225 219 230 239 242 240 236 215 197 189 182 181 188 194 201 198 194 195 200 210 213 200 186 189 194 195 196
219 48 174 184 147 178 123 96 77 129 234 259 208 230 266 211 220 214 214 220 229 229 219 154 87 89 118 145 167 178 190 203 201 199 200 205 212 211 206 199 195 196 197 201
203 194 164 107 112 118 144 144 169 227 224 246 184 220 252 199 179 169 179 198 184 149 142 125 123 137 154 158 167 176 189 205 202 202 205 208 212 211 215 210 200 194 197 204
200 205 179 182 171 166 193 183 175 193 221 265 215 233 253 133 100 92 228 238 232 208 195 189 190 183 179 179 176 182 197 208 205 205 209 209 209 212 220 216 204 202 204 205
212 222 167 182 178 160 173 219 215 222 265 291 260 260 278 112 242 253 253 252 250 225 202 196 196 189 176 179 187 190 197 207 212 210 208 211 211 214 219 218 208 203 199 192
247 240 118 123 84 281 209 174 162 190 204 240 262 250 243 229 226 230 246 261 266 221 193 176 177 175 169 175 186 190 199 207 212 212 212 215 216 217 217 215 214 206 197 189
211 202 141 147 194 188 181 207 196 186 182 189 257 260 197 135 148 156 174 26 50 96 166 176 178 175 172 175 186 198 205 210 213 214 214 217 219 217 217 219 217 206 198 191
181 186 206 209 208 218 203 201 194 192 220 207 231 261 111 87 86 91 81 60 36 354 216 172 165 166 185 203 211 214 213 216 218 214 213 216 216 215 217 220 215 204 201 195
144 160 182 266 208 213 231 219 213 221 209 211 224 258 108 106 89 76 37 319 278 266 236 202 203 216 224 224 224 222 220 221 218 212 214 218 217 216 218 218 210 202 198 194
125 172 200 204 165 160 203 227 221 214 223 235 237 253 257 345 351 334 321 306 288 268 253 236 236 238 236 232 228 227 228 221 215 211 215 221 223 220 218 213 206 201 196 194
134 195 223 256 275 242 214 232 240 236 236 239 253 261 266 284 296 300 301 299 298 294 288 284 280 273 266 259 251 241 238 226 213 213 220 227 227 221 214 209 204 198 196 197
156 185 203 247 244 249 250 234 232 238 241 248 262 266 270 282 282 285 285 288 294 299 302 304 304 299 291 281 270 261 252 239 216 219 226 228 223 218 213 207 198 193 195 192
165 165 180 229 189 223 250 229 222 226 223 227 246 260 284 285 284 288 300 308 307 314 317 317 314 307 304 301 293 280 272 261 235 233 235 229 221 218 211 198 192 195 193 188
163 151 170 212 162 227 239 210 209 224 233 231 240 263 280 282 284 277 318 340 331 326 321 318 320 320 322 323 321 314 306 285 258 248 244 234 223 219 205 194 198 197 188 189
193 170 180 198 227 260 272 244 222 222 235 238 252 288 316 317 314 290 18 2 343 335 331 328 328 325 327 333 334 323 307 293 272 258 250 237 220 213 202 201 200 192 185 188
206 193 192 201 212 231 239 239 251 209 233 32 39 359 347 4 336 301 351 341 334 333 334 331 332 333 331 330 329 313 301 293 277 268 258 239 215 206 205 199 189 178 176 180
173 196 213 218 228 249 250 254 117 199 217 156 18 347 340 315 264 292 314 317 319 322 326 334 336 330 324 324 322 308 305 296 294 291 274 237 205 196 191 180 167 156 153 153
173 182 199 205 220 239 210 101 161 175 125 127 358 323 299 282 287 295 299 300 309 316 321 330 326 320 326 333 330 318 311 313 321 331 352 31 126 137 139 142 141 142 144 148
201 194 187 194 209 181 133 140 144 149 272 282 276 284 286 289 291 296 300 302 305 306 308 314 311 313 324 339 340 317 316 326 336 20 56 73 83 93 112 126 131 131 140 146
226 195 205 247 242 184 134 137 159 187 215 243 255 268 272 277 283 287 290 293 295 296 298 302 308 311 319 336 340 326 322 328 352 67 80 89 95 95 96 105 120 132 142 145
205 173 201 240 268 318 287 248 241 251 258 270 270 262 261 268 272 272 276 279 282 287 293 298 299 306 317 332 339 341 336 340 40 88 91 95 95 100 95 88 91 104 94 124
214 206 209 233 237 242 264 260 253 264 267 271 279 281 272 258 265 271 271 271 276 281 291 299 305 314 326 335 339 341 337 337 66 99 96 97 101 102 105 104 91 82 87 87